SWA3322 KFLL-MYNN

Flight info

Callsign SWA3322
Flight time 0h 29m
Altitude 19000
Route SNAPR2 RAJAY
Aircraft B38M/M-SDE1FGHILORVWXY/HB1

Departure

Time 2026-05-04 01:09
Airport Fort Lauderdale Hollywood International Airport (KFLL)

Arrival

Time 2026-05-04 01:39
Airport Lynden Pindling International Airport (MYNN)
Time Latitude Longitude Altitude Speed Heading
2026-05-03 23:59 26.07371 -80.13793 10 ft 0 kts 245°
2026-05-04 00:53 26.07371 -80.13792 10 ft 1 kts 245°
2026-05-04 00:54 26.07378 -80.13777 10 ft 2 kts 245°
2026-05-04 00:54 26.07385 -80.13763 10 ft 2 kts 229°
2026-05-04 00:54 26.07396 -80.13751 10 ft 2 kts 218°
2026-05-04 00:54 26.07409 -80.13742 10 ft 2 kts 205°
2026-05-04 00:55 26.07423 -80.13736 10 ft 2 kts 200°
2026-05-04 00:55 26.07437 -80.13730 10 ft 2 kts 202°
2026-05-04 00:55 26.07450 -80.13722 10 ft 2 kts 222°
2026-05-04 00:55 26.07460 -80.13709 10 ft 2 kts 238°
2026-05-04 00:56 26.07466 -80.13694 10 ft 2 kts 256°
2026-05-04 00:56 26.07468 -80.13683 10 ft 0 kts 268°
2026-05-04 00:56 26.07468 -80.13676 10 ft 0 kts 270°
2026-05-04 01:00 26.07468 -80.13679 10 ft 2 kts 270°
2026-05-04 01:00 26.07503 -80.13731 10 ft 12 kts 316°
2026-05-04 01:00 26.07519 -80.13841 10 ft 16 kts 274°
2026-05-04 01:01 26.07547 -80.13983 10 ft 19 kts 269°
2026-05-04 01:01 26.07558 -80.14147 10 ft 21 kts 270°
2026-05-04 01:01 26.07559 -80.14322 10 ft 25 kts 271°
2026-05-04 01:01 26.07560 -80.14544 10 ft 31 kts 271°
2026-05-04 01:02 26.07562 -80.14777 10 ft 28 kts 270°
2026-05-04 01:02 26.07561 -80.14990 10 ft 26 kts 270°
2026-05-04 01:02 26.07564 -80.15186 10 ft 24 kts 271°
2026-05-04 01:02 26.07566 -80.15366 10 ft 22 kts 269°
2026-05-04 01:03 26.07565 -80.15530 10 ft 20 kts 270°
2026-05-04 01:03 26.07566 -80.15678 10 ft 18 kts 270°
2026-05-04 01:03 26.07566 -80.15810 10 ft 16 kts 270°
2026-05-04 01:03 26.07568 -80.15952 10 ft 21 kts 270°
2026-05-04 01:04 26.07570 -80.16125 10 ft 22 kts 271°
2026-05-04 01:04 26.07572 -80.16301 10 ft 23 kts 270°
2026-05-04 01:04 26.07571 -80.16482 10 ft 23 kts 271°
2026-05-04 01:04 26.07587 -80.16627 10 ft 5 kts 311°
2026-05-04 01:05 26.07588 -80.16627 10 ft 0 kts 312°
2026-05-04 01:08 26.07628 -80.16639 10 ft 14 kts
2026-05-04 01:08 26.07693 -80.16572 10 ft 14 kts 88°
2026-05-04 01:08 26.07693 -80.16475 10 ft 11 kts 91°
2026-05-04 01:08 26.07694 -80.16334 10 ft 51 kts 88°
2026-05-04 01:09 26.07688 -80.15524 12 ft 153 kts 90°
2026-05-04 01:09 26.07674 -80.14156 553 ft 196 kts 88°
2026-05-04 01:09 26.07714 -80.12515 1268 ft 235 kts 86°
2026-05-04 01:09 26.07780 -80.10511 1873 ft 284 kts 86°
2026-05-04 01:10 26.07824 -80.08240 2477 ft 305 kts 88°
2026-05-04 01:10 26.07848 -80.05817 3092 ft 317 kts 88°
2026-05-04 01:10 26.07866 -80.03356 3694 ft 326 kts 89°
2026-05-04 01:10 26.07884 -80.00821 4301 ft 330 kts 90°
2026-05-04 01:11 26.07879 -79.98250 4908 ft 336 kts 91°
2026-05-04 01:11 26.07847 -79.95637 5521 ft 341 kts 91°
2026-05-04 01:11 26.07806 -79.93012 6126 ft 344 kts 91°
2026-05-04 01:11 26.07767 -79.90348 6730 ft 347 kts 91°
2026-05-04 01:12 26.07731 -79.87638 7333 ft 355 kts 91°
2026-05-04 01:12 26.07695 -79.84875 7939 ft 357 kts 92°
2026-05-04 01:12 26.07481 -79.82121 8529 ft 363 kts 99°
2026-05-04 01:12 26.06998 -79.79367 9128 ft 365 kts 104°
2026-05-04 01:13 26.06390 -79.76617 9734 ft 370 kts 106°
2026-05-04 01:13 26.05745 -79.73852 10334 ft 374 kts 106°
2026-05-04 01:13 26.05095 -79.71047 10932 ft 379 kts 106°
2026-05-04 01:13 26.04455 -79.68216 11534 ft 381 kts 106°
2026-05-04 01:14 26.03817 -79.65331 12136 ft 385 kts 106°
2026-05-04 01:14 26.03175 -79.62451 12733 ft 388 kts 107°
2026-05-04 01:14 26.02498 -79.59538 13330 ft 394 kts 107°
2026-05-04 01:14 26.01801 -79.56591 13927 ft 400 kts 107°
2026-05-04 01:15 26.01083 -79.53571 14534 ft 404 kts 107°
2026-05-04 01:15 26.00370 -79.50569 15126 ft 407 kts 107°
2026-05-04 01:15 25.99643 -79.47501 15731 ft 414 kts 107°
2026-05-04 01:15 25.98905 -79.44386 16329 ft 419 kts 107°
2026-05-04 01:16 25.98158 -79.41232 16926 ft 424 kts 107°
2026-05-04 01:16 25.97387 -79.38065 17529 ft 430 kts 109°
2026-05-04 01:16 25.96458 -79.34907 18126 ft 431 kts 113°
2026-05-04 01:16 25.95397 -79.31790 18686 ft 437 kts 115°
2026-05-04 01:17 25.94260 -79.28638 18883 ft 439 kts 116°
2026-05-04 01:17 25.93115 -79.25499 18911 ft 436 kts 116°
2026-05-04 01:17 25.91994 -79.22407 18913 ft 436 kts 116°
2026-05-04 01:17 25.90868 -79.19268 18913 ft 436 kts 115°
2026-05-04 01:18 25.89751 -79.16125 18911 ft 436 kts 115°
2026-05-04 01:18 25.88652 -79.13005 18913 ft 436 kts 115°
2026-05-04 01:18 25.87550 -79.09868 18915 ft 435 kts 115°
2026-05-04 01:18 25.86468 -79.06777 18916 ft 436 kts 115°
2026-05-04 01:19 25.85371 -79.03645 18910 ft 435 kts 115°
2026-05-04 01:19 25.84266 -79.00489 18910 ft 434 kts 114°
2026-05-04 01:19 25.83175 -78.97375 18911 ft 437 kts 114°
2026-05-04 01:19 25.82083 -78.94260 18915 ft 434 kts 115°
2026-05-04 01:20 25.80985 -78.91131 18917 ft 436 kts 115°
2026-05-04 01:20 25.79894 -78.88030 18917 ft 434 kts 115°
2026-05-04 01:20 25.78789 -78.84890 18912 ft 434 kts 114°
2026-05-04 01:20 25.77692 -78.81770 18917 ft 436 kts 115°
2026-05-04 01:21 25.76600 -78.78669 18917 ft 436 kts 115°
2026-05-04 01:21 25.75493 -78.75538 18917 ft 433 kts 115°
2026-05-04 01:21 25.74333 -78.72491 18918 ft 432 kts 118°
2026-05-04 01:21 25.72951 -78.69534 18921 ft 430 kts 124°
2026-05-04 01:22 25.71383 -78.66746 18926 ft 427 kts 127°
2026-05-04 01:22 25.69693 -78.64004 18929 ft 429 kts 129°
2026-05-04 01:22 25.67966 -78.61292 18927 ft 427 kts 129°
2026-05-04 01:22 25.66278 -78.58645 18928 ft 427 kts 129°
2026-05-04 01:23 25.64562 -78.55938 18929 ft 428 kts 129°
2026-05-04 01:23 25.62866 -78.53236 18930 ft 428 kts 129°
2026-05-04 01:23 25.61158 -78.50497 18931 ft 428 kts 129°
2026-05-04 01:23 25.59479 -78.47818 18933 ft 426 kts 129°
2026-05-04 01:24 25.57705 -78.45193 18930 ft 425 kts 134°
2026-05-04 01:24 25.55711 -78.42770 18931 ft 421 kts 140°
2026-05-04 01:24 25.53562 -78.40581 18928 ft 419 kts 143°
2026-05-04 01:24 25.51335 -78.38497 18931 ft 417 kts 145°
2026-05-04 01:25 25.49098 -78.36462 18930 ft 417 kts 145°
2026-05-04 01:25 25.46881 -78.34441 18930 ft 415 kts 146°
2026-05-04 01:25 25.44629 -78.32368 18862 ft 415 kts 145°
2026-05-04 01:25 25.42455 -78.30339 18436 ft 403 kts 144°
2026-05-04 01:26 25.40340 -78.28346 17735 ft 399 kts 144°
2026-05-04 01:26 25.38257 -78.26376 17023 ft 395 kts 143°
2026-05-04 01:26 25.36163 -78.24392 16297 ft 391 kts 143°
2026-05-04 01:26 25.34133 -78.22466 15586 ft 387 kts 143°
2026-05-04 01:27 25.32141 -78.20515 14873 ft 384 kts 139°
2026-05-04 01:27 25.30412 -78.18250 14122 ft 386 kts 125°
2026-05-04 01:27 25.29334 -78.15569 13256 ft 380 kts 107°
2026-05-04 01:27 25.28734 -78.12793 12398 ft 372 kts 103°
2026-05-04 01:28 25.28243 -78.10039 11538 ft 363 kts 102°
2026-05-04 01:28 25.27777 -78.07362 10685 ft 355 kts 102°
2026-05-04 01:28 25.27295 -78.04701 9809 ft 348 kts 102°
2026-05-04 01:28 25.26814 -78.02155 8951 ft 342 kts 103°
2026-05-04 01:29 25.26320 -77.99616 8094 ft 336 kts 103°
2026-05-04 01:29 25.25829 -77.97123 7225 ft 331 kts 103°
2026-05-04 01:29 25.25345 -77.94690 6367 ft 326 kts 103°
2026-05-04 01:29 25.24859 -77.92252 5497 ft 321 kts 103°
2026-05-04 01:30 25.24391 -77.89906 4640 ft 316 kts 103°
2026-05-04 01:30 25.23923 -77.87560 3769 ft 310 kts 103°
2026-05-04 01:30 25.23466 -77.85272 2903 ft 304 kts 103°
2026-05-04 01:30 25.23021 -77.83042 2130 ft 294 kts 102°
2026-05-04 01:31 25.22596 -77.80920 1707 ft 274 kts 102°
2026-05-04 01:31 25.22204 -77.78958 1682 ft 244 kts 102°
2026-05-04 01:31 25.21857 -77.77223 1878 ft 223 kts 102°
2026-05-04 01:31 25.21532 -77.75588 1910 ft 215 kts 102°
2026-05-04 01:32 25.21223 -77.74030 1909 ft 197 kts 102°
2026-05-04 01:32 25.20946 -77.72617 1923 ft 187 kts 102°
2026-05-04 01:32 25.20660 -77.71199 1901 ft 187 kts 102°
2026-05-04 01:32 25.20375 -77.69798 1904 ft 187 kts 102°
2026-05-04 01:33 25.20093 -77.68394 1904 ft 186 kts 102°
2026-05-04 01:33 25.19811 -77.66990 1905 ft 187 kts 102°
2026-05-04 01:33 25.19527 -77.65582 1905 ft 190 kts 102°
2026-05-04 01:33 25.19242 -77.64162 1904 ft 186 kts 102°
2026-05-04 01:34 25.18860 -77.62792 1899 ft 186 kts 117°
2026-05-04 01:34 25.18001 -77.61705 1905 ft 190 kts 139°
2026-05-04 01:34 25.16982 -77.60760 1701 ft 192 kts 137°
2026-05-04 01:34 25.16038 -77.59759 1489 ft 181 kts 133°
2026-05-04 01:35 25.15193 -77.58796 1476 ft 173 kts 133°
2026-05-04 01:35 25.14345 -77.57829 1475 ft 172 kts 132°
2026-05-04 01:35 25.13553 -77.56927 1506 ft 150 kts 131°
2026-05-04 01:35 25.12881 -77.56168 1481 ft 137 kts 132°
2026-05-04 01:36 25.12194 -77.55391 1507 ft 143 kts 132°
2026-05-04 01:36 25.11485 -77.54588 1507 ft 144 kts 132°
2026-05-04 01:36 25.10752 -77.53827 1507 ft 145 kts 135°
2026-05-04 01:36 25.10016 -77.53044 1452 ft 147 kts 131°
2026-05-04 01:37 25.09344 -77.52207 1384 ft 146 kts 130°
2026-05-04 01:37 25.08658 -77.51430 1193 ft 135 kts 135°
2026-05-04 01:37 25.07996 -77.50750 927 ft 125 kts 133°
2026-05-04 01:37 25.07381 -77.50048 717 ft 127 kts 130°
2026-05-04 01:38 25.06779 -77.49342 505 ft 126 kts 133°
2026-05-04 01:38 25.06161 -77.48656 319 ft 128 kts 133°
2026-05-04 01:38 25.05528 -77.47952 170 ft 127 kts 133°
2026-05-04 01:38 25.04910 -77.47265 31 ft 121 kts 133°
2026-05-04 01:39 25.04365 -77.46658 27 ft 93 kts 134°
2026-05-04 01:39 25.04128 -77.46307 26 ft 44 kts 112°
2026-05-04 01:39 25.04176 -77.46195 26 ft 20 kts 322°
2026-05-04 01:39 25.04270 -77.46297 27 ft 17 kts 314°
2026-05-04 01:40 25.04350 -77.46384 27 ft 15 kts 315°
2026-05-04 01:40 25.04420 -77.46461 27 ft 12 kts 314°
2026-05-04 01:40 25.04479 -77.46526 27 ft 10 kts 315°
2026-05-04 01:40 25.04528 -77.46580 27 ft 10 kts 314°
2026-05-04 01:41 25.04613 -77.46677 27 ft 24 kts 314°
2026-05-04 01:41 25.04736 -77.46812 28 ft 23 kts 314°
2026-05-04 01:41 25.04847 -77.46929 28 ft 19 kts 320°
2026-05-04 01:41 25.04944 -77.46898 28 ft 15 kts 54°
2026-05-04 01:42 25.05021 -77.46838 27 ft 12 kts
2026-05-04 01:42 25.05056 -77.46845 27 ft 0 kts 347°
2026-05-04 01:42 25.05057 -77.46845 27 ft 0 kts 347°